Powrót do katalogu

THOR ABLESTAR DEB

AktywnyLEO
NORAD 263·DEBRIS·🇺🇸 United States

Wystrzelony Jun 29, 1961 z Cape Canaveral Space Force Station

Loading…

Następne Przeloty (najbliższe 24 godziny)

TLE

ŚwieżeSource: Space-Track

Epoka: Sep 7, 2026, 11:36 UTC

1 00263U 61015CK  26250.48393612  .00000524  00000-0  15937-3 0  9994
2 00263  66.5272 265.1057 0101886 216.5458 220.0834 14.47385843395207

Śledź THOR ABLESTAR DEB w czasie rzeczywistym z AllMySat

Download on the App Store